[[{"header":{"parameterUnit":"m.s-1","parameterCategory":1,"la1":30.2991,"la2":30.254,"lo1":-89.0895,"lo2":-89.0444,"dy":0.0017,"dx":0.0017,"nx":28,"ny":28,"refTime":"2025-07-04T03:00:00:Z","depth":0,"parameterNumber":2,"parameterNumberName":"U-component_of_WINDS"},"data":[0,0,0,0,0,0,0,0,0,0,0,0,0,0,0,0,0,0,0,0,0,0,0,0,0,0,0,0,0,0,0,0,0,0,0,0,0,0,0,0,0,0,0,0,0,0,0,0,0,0,0,0,0,0,0,0,0,0,0.5641,0.5641,0,0.5681,0.5682,0.5682,0.5692,0.5692,0.5691,0.5691,0.5735,0.5736,0.5738,0,0,0,0,0,0,0,0,0,0,0,0,0,0.5575,0.5576,0.5641,0.5641,0.5642,0.5681,0.5682,0.5683,0.5692,0.5692,0.5691,0.5691,0.5734,0.5736,0.5738,0,0,0,0,0,0,0,0,0,0,0,0,0,0.5608,0.5576,0.5641,0.5651,0.5653,0.5681,0.5682,0.5683,0.5692,0.5692,0.5691,0.5691,0.5734,0.5736,0.5738,0.576,0,0,0.5745,0.5746,0,0,0,0,0,0,0,0,0.5606,0.5611,0.5649,0.5651,0.5652,0.5681,0.5675,0.5709,0.5692,0.5677,0.5691,0.5691,0.5718,0.5721,0.573,0.5762,0.5764,0.5745,0.5746,0.5747,0.5748,0,0,0,0,0,0,0,0.5604,0.5609,0.5657,0.565,0.5652,0.5655,0.5659,0.5681,0.5699,0.5678,0.5679,0.5684,0.5718,0.5727,0.5731,0.5764,0.5745,0.5747,0.5748,0.5749,0.5817,0.5818,0,0,0,0,0,0,0.5599,0.5607,0.5656,0.5658,0.5628,0.5657,0.5661,0.5672,0.5699,0.5703,0.5684,0.5684,0.5724,0.5728,0.5732,0.576,0.5747,0.5749,0.575,0.5817,0.5817,0.5818,0,0,0,0,0,0,0.5598,0.5604,0.5654,0.5633,0.5639,0.5658,0.567,0.5673,0.5683,0.5703,0.5707,0.569,0.5724,0.5729,0.5753,0.5761,0.575,0.5752,0.5816,0.5817,0.5818,0.5814,0,0,0,0,0,0,0.5596,0.5603,0.5611,0.5633,0.5641,0.5673,0.5671,0.5674,0.5686,0.5686,0.571,0.5713,0.5724,0.575,0.5755,0.5764,0.5754,0.5815,0.5816,0.5817,0.5814,0.5815,0.5816,0,0,0,0,0,0.5594,0.5608,0.5611,0.5617,0.565,0.5673,0.5678,0.5689,0.5687,0.5695,0.5708,0.5713,0.576,0.5752,0.5758,0.5768,0.5815,0.5816,0.5817,0.5813,0.5815,0.5816,0,0,0,0,0,0,0.5587,0.5611,0.5615,0.5637,0.5653,0.5675,0.5686,0.569,0.5708,0.5708,0.5722,0.5727,0.575,0.5762,0.5752,0.5791,0.5787,0.579,0.5782,0.5784,0.5785,0.5781,0.5755,0,0,0,0,0,0.5588,0.5604,0.5625,0.5643,0.5651,0.5667,0.5677,0.5685,0.5702,0.5709,0.5725,0.5742,0.5761,0.5773,0.5792,0.5816,0.5822,0.5826,0.5827,0.5828,0.583,0.5844,0.5846,0.5822,0.5822,0.5822,0,0,0.5591,0.5606,0.5616,0.5642,0.5655,0.5672,0.5672,0.569,0.5704,0.5712,0.5735,0.5747,0.5768,0.5792,0.5804,0.5802,0.5838,0.5829,0.583,0.5831,0.5845,0.5848,0.585,0.5823,0.5823,0.5822,0,0,0.5604,0.5617,0.5634,0.5647,0.5667,0.5678,0.5682,0.5704,0.5712,0.5735,0.5742,0.5759,0.5791,0.5805,0.5817,0.5837,0.5842,0.5843,0.5848,0.5862,0.5864,0.5866,0.5873,0.5876,0.5845,0.5845,0.5845,0,0.5605,0.563,0.5642,0.5659,0.5671,0.568,0.5697,0.571,0.5735,0.5744,0.5742,0.5783,0.5797,0.5825,0.583,0.5839,0.5845,0.584,0.5863,0.5864,0.5866,0.5874,0.5876,0.5845,0.5845,0.5845,0.5845,0,0.5631,0.5648,0.5659,0.5683,0.5696,0.5713,0.5728,0.5741,0.5747,0.5759,0.5783,0.5801,0.5823,0.5831,0.5837,0.586,0.5858,0.586,0.5856,0.5868,0.5875,0.5878,0.5845,0.5845,0.5845,0.5845,0,0,0.564,0.567,0.5674,0.5685,0.5709,0.5723,0.5741,0.5763,0.5773,0.5791,0.5807,0.5835,0.5836,0.5849,0.5858,0.587,0.5885,0.587,0.5871,0.5872,0.5912,0.5911,0.5914,0.5889,0.5889,0.589,0.591,0,0.5656,0.5688,0.57,0.5726,0.5743,0.5752,0.5768,0.5785,0.5796,0.5813,0.5826,0.5845,0.5846,0.5854,0.5866,0.5881,0.5893,0.588,0.5905,0.5905,0.5899,0.5917,0.5916,0.5934,0.5913,0.5913,0.5914,0,0.5679,0.5697,0.5725,0.5747,0.5754,0.5768,0.5789,0.5805,0.5824,0.5832,0.5847,0.5855,0.5876,0.5872,0.5901,0.5891,0.5903,0.5912,0.5913,0.5915,0.591,0.592,0.594,0.5943,0.5918,0.5918,0.5918,0,0.5683,0.5714,0.5735,0.5744,0.577,0.578,0.5792,0.5811,0.5823,0.5842,0.585,0.5872,0.5883,0.59,0.5914,0.591,0.5942,0.5939,0.595,0.595,0.5956,0.5955,0.5978,0.5963,0.5963,0.5963,0.5963,0,0.57,0.5717,0.5737,0.575,0.577,0.5783,0.5803,0.5815,0.5832,0.5849,0.5858,0.5873,0.5891,0.5909,0.592,0.5943,0.5948,0.5956,0.5958,0.5955,0.5954,0.5962,0.5961,0.5964,0.5964,0.5964,0.5964,0,0.5708,0.5722,0.5745,0.5768,0.5774,0.5788,0.5808,0.5821,0.5834,0.5854,0.586,0.5879,0.5901,0.5917,0.5945,0.5953,0.5977,0.598,0.597,0.5971,0.5981,0.598,0.6009,0.6014,0.5997,0.5997,0.5997,0,0.5717,0.573,0.5755,0.5766,0.5777,0.5795,0.5808,0.5822,0.5835,0.5859,0.587,0.5892,0.591,0.5945,0.5962,0.5984,0.5987,0.5996,0.5991,0.5987,0.5987,0.5986,0.5988,0.5997,0.5997,0.5997,0.5997,0,0.5733,0.5739,0.5756,0.5777,0.5791,0.5808,0.5825,0.5834,0.5852,0.5866,0.5888,0.5903,0.5931,0.5953,0.5977,0.599,0.5997,0.5999,0.6002,0.5998,0.5992,0.5996,0.5972,0.5998,0.5998,0.5998,0.5998,0.5998,0.5742,0.5754,0.5773,0.5792,0.5807,0.5822,0.5836,0.585,0.5868,0.5892,0.59,0.5923,0.5944,0.5976,0.5989,0.6008,0.6008,0.6013,0.6014,0.6015,0.6015,0.5989,0.6013,0.6013,0.6013,0.6013,0.6013,0,0.5757,0.577,0.5788,0.5811,0.5827,0.5831,0.5851,0.5864,0.5883,0.5902,0.5919,0.5945,0.5967,0.5986,0.6009,0.602,0.6024,0.6026,0.6025,0.6028,0.6014,0.6008,0.6023,0.6023,0.6023,0.6023,0.6023,0.6023,0.5767,0.5788,0.5797,0.5826,0.5839,0.5861,0.5872,0.5887,0.5902,0.593,0.5947,0.596,0.5979,0.6003,0.6024,0.6029,0.6037,0.6038,0.6044,0.603,0.6029,0.6028,0.6023,0.604,0.604,0.6057,0.6057,0.6057]},{"header":{"parameterUnit":"m.s-1","parameterCategory":1,"la1":30.2991,"la2":30.254,"lo1":-89.0895,"lo2":-89.0444,"dy":0.0017,"dx":0.0017,"nx":28,"ny":28,"refTime":"2025-07-04T03:00:00:Z","depth":0,"parameterNumber":3,"parameterNumberName":"V-component_of_WINDS"},"data":[0,0,0,0,0,0,0,0,0,0,0,0,0,0,0,0,0,0,0,0,0,0,0,0,0,0,0,0,0,0,0,0,0,0,0,0,0,0,0,0,0,0,0,0,0,0,0,0,0,0,0,0,0,0,0,0,0,0,-1.4597,-1.4597,0,-1.4559,-1.4559,-1.4558,-1.4586,-1.4587,-1.4588,-1.459,-1.4547,-1.4545,-1.4543,0,0,0,0,0,0,0,0,0,0,0,0,0,-1.4692,-1.469,-1.4597,-1.4597,-1.4596,-1.4559,-1.4559,-1.4558,-1.4586,-1.4587,-1.4589,-1.459,-1.4548,-1.4545,-1.4543,0,0,0,0,0,0,0,0,0,0,0,0,0,-1.4652,-1.4689,-1.4597,-1.4606,-1.4606,-1.4559,-1.4559,-1.4558,-1.4585,-1.4587,-1.4589,-1.4591,-1.4549,-1.4546,-1.4542,-1.4484,0,0,-1.4532,-1.453,0,0,0,0,0,0,0,0,-1.4654,-1.4648,-1.4605,-1.4605,-1.4605,-1.4579,-1.4577,-1.4533,-1.4585,-1.4593,-1.459,-1.4592,-1.4556,-1.4552,-1.4541,-1.4482,-1.448,-1.4531,-1.4529,-1.4528,-1.4527,0,0,0,0,0,0,0,-1.4657,-1.465,-1.4582,-1.4604,-1.4604,-1.4611,-1.4607,-1.4569,-1.4565,-1.4593,-1.4594,-1.459,-1.4557,-1.4544,-1.454,-1.448,-1.4532,-1.4528,-1.4526,-1.4525,-1.4375,-1.4374,0,0,0,0,0,0,-1.4659,-1.4652,-1.4583,-1.4581,-1.4635,-1.4608,-1.4604,-1.4586,-1.4565,-1.4564,-1.4588,-1.4591,-1.4549,-1.4544,-1.4539,-1.4473,-1.4528,-1.4525,-1.4523,-1.4377,-1.4375,-1.4373,0,0,0,0,0,0,-1.4661,-1.4653,-1.4585,-1.4617,-1.4609,-1.4604,-1.4584,-1.4584,-1.4572,-1.4562,-1.4561,-1.4576,-1.455,-1.4544,-1.4499,-1.4471,-1.4523,-1.452,-1.438,-1.4377,-1.4374,-1.4338,0,0,0,0,0,0,-1.4664,-1.4653,-1.4631,-1.4617,-1.4607,-1.4545,-1.4582,-1.4582,-1.4566,-1.457,-1.4551,-1.4549,-1.4551,-1.4504,-1.4495,-1.4468,-1.4517,-1.4382,-1.4378,-1.4375,-1.4341,-1.4334,-1.4327,0,0,0,0,0,-1.4667,-1.4621,-1.463,-1.4622,-1.458,-1.4544,-1.4538,-1.4543,-1.4564,-1.4542,-1.4536,-1.455,-1.4475,-1.4499,-1.449,-1.446,-1.4384,-1.4379,-1.4375,-1.4344,-1.4335,-1.4328,0,0,0,0,0,0,-1.463,-1.4619,-1.4629,-1.4577,-1.4562,-1.4549,-1.4521,-1.4532,-1.451,-1.4514,-1.4519,-1.4514,-1.4468,-1.4459,-1.4486,-1.4405,-1.4433,-1.4427,-1.4413,-1.4404,-1.4397,-1.4401,-1.4515,0,0,0,0,0,-1.4617,-1.4589,-1.458,-1.4535,-1.4527,-1.4525,-1.451,-1.4515,-1.4498,-1.4492,-1.4482,-1.4465,-1.4439,-1.442,-1.4395,-1.434,-1.4337,-1.4315,-1.4309,-1.4303,-1.4298,-1.4271,-1.4262,-1.4359,-1.4359,-1.4359,0,0,-1.4587,-1.4578,-1.456,-1.4528,-1.4516,-1.4488,-1.452,-1.4487,-1.4467,-1.4486,-1.4445,-1.4437,-1.4419,-1.437,-1.4347,-1.4361,-1.4271,-1.4297,-1.4293,-1.4291,-1.4266,-1.4257,-1.4249,-1.4356,-1.4356,-1.4357,0,0,-1.452,-1.4509,-1.4472,-1.4461,-1.4444,-1.4444,-1.4435,-1.4421,-1.4418,-1.4376,-1.4392,-1.4366,-1.4319,-1.4306,-1.4294,-1.4225,-1.4238,-1.4216,-1.418,-1.4155,-1.4147,-1.414,-1.4118,-1.411,-1.4211,-1.421,-1.421,0,-1.4485,-1.4444,-1.4451,-1.4419,-1.4406,-1.4424,-1.4388,-1.4376,-1.4351,-1.4341,-1.4357,-1.4301,-1.4289,-1.4239,-1.4222,-1.421,-1.4202,-1.4219,-1.4148,-1.4141,-1.4135,-1.4114,-1.4105,-1.4208,-1.4208,-1.4209,-1.4209,0,-1.4404,-1.4375,-1.4347,-1.4326,-1.4308,-1.4274,-1.4276,-1.4258,-1.4265,-1.4263,-1.4222,-1.4209,-1.4183,-1.4171,-1.4176,-1.4122,-1.4132,-1.4147,-1.4176,-1.4123,-1.4104,-1.4096,-1.4205,-1.4206,-1.4206,-1.4207,0,0,-1.4311,-1.4296,-1.4286,-1.4278,-1.4262,-1.424,-1.4207,-1.4184,-1.4169,-1.4151,-1.4125,-1.4086,-1.4102,-1.4088,-1.4092,-1.4069,-1.4019,-1.4088,-1.4087,-1.4077,-1.3962,-1.3951,-1.3942,-1.4027,-1.4025,-1.4024,-1.3964,0,-1.4245,-1.419,-1.4196,-1.4143,-1.4118,-1.4137,-1.4109,-1.4096,-1.4094,-1.4072,-1.4069,-1.4043,-1.4064,-1.4056,-1.4034,-1.4029,-1.3996,-1.4033,-1.4003,-1.4002,-1.4009,-1.3931,-1.392,-1.3864,-1.3956,-1.3955,-1.3954,0,-1.416,-1.4143,-1.4088,-1.408,-1.407,-1.4044,-1.4025,-1.4003,-1.399,-1.399,-1.3976,-1.3985,-1.3952,-1.3981,-1.3937,-1.3963,-1.3951,-1.3947,-1.3945,-1.3944,-1.3976,-1.393,-1.3846,-1.3838,-1.3941,-1.3942,-1.3943,0,-1.4102,-1.4065,-1.4028,-1.402,-1.4008,-1.3991,-1.3985,-1.3973,-1.396,-1.3942,-1.3934,-1.3912,-1.39,-1.3883,-1.3887,-1.3907,-1.3843,-1.3871,-1.3843,-1.3843,-1.383,-1.3831,-1.3745,-1.3819,-1.3819,-1.3819,-1.3819,0,-1.4029,-1.3995,-1.4002,-1.398,-1.3943,-1.3951,-1.3915,-1.3911,-1.3901,-1.3879,-1.3892,-1.3871,-1.3875,-1.3854,-1.3856,-1.3821,-1.3815,-1.3815,-1.3816,-1.3815,-1.3815,-1.3808,-1.3813,-1.3817,-1.3817,-1.3818,-1.3818,0,-1.3957,-1.3961,-1.3923,-1.3916,-1.3914,-1.3887,-1.3881,-1.386,-1.386,-1.3832,-1.3825,-1.3825,-1.3801,-1.3802,-1.3774,-1.3776,-1.3734,-1.3738,-1.3739,-1.374,-1.3714,-1.3717,-1.3621,-1.361,-1.3689,-1.3688,-1.3688,0,-1.3911,-1.3887,-1.3878,-1.3865,-1.3859,-1.3837,-1.3825,-1.3832,-1.3818,-1.3803,-1.3784,-1.3762,-1.3744,-1.3705,-1.3702,-1.3681,-1.3686,-1.3654,-1.3683,-1.3684,-1.3689,-1.3691,-1.369,-1.3649,-1.3648,-1.3647,-1.3647,0,-1.383,-1.3834,-1.3816,-1.3799,-1.3784,-1.3771,-1.3758,-1.3747,-1.3753,-1.3737,-1.3713,-1.37,-1.3673,-1.3652,-1.3633,-1.3626,-1.3638,-1.3638,-1.3631,-1.363,-1.3633,-1.3634,-1.3726,-1.364,-1.3641,-1.3641,-1.3642,-1.3642,-1.3772,-1.3752,-1.3745,-1.3725,-1.3717,-1.3706,-1.3687,-1.3686,-1.3667,-1.3648,-1.3653,-1.3627,-1.3617,-1.3593,-1.3585,-1.3565,-1.3576,-1.3565,-1.3563,-1.3561,-1.3559,-1.3634,-1.3561,-1.3561,-1.3561,-1.3561,-1.3561,0,-1.3694,-1.3691,-1.3673,-1.3657,-1.3642,-1.3656,-1.3644,-1.363,-1.3608,-1.3598,-1.3581,-1.3556,-1.3536,-1.3532,-1.3512,-1.3497,-1.3503,-1.3492,-1.3494,-1.3493,-1.3548,-1.3558,-1.3489,-1.3489,-1.3489,-1.3489,-1.3489,-1.3489,-1.3652,-1.3621,-1.3624,-1.3589,-1.3585,-1.3562,-1.3555,-1.3545,-1.3537,-1.3509,-1.3493,-1.3491,-1.3484,-1.3465,-1.3448,-1.3447,-1.344,-1.3428,-1.343,-1.3482,-1.3489,-1.3496,-1.3505,-1.3426,-1.3426,-1.3377,-1.3377,-1.3376]}]]